Location: Chimay
(50.0486°N, 4.3171°E)
Time: 22:36:23
(UTC+00:00)

Okean 1 - Pass Details

Date: 08 August 2020
Orbit: 539 x 554 km, 82.5° (Epoch: 22 September)

Event Time Altitude Azimuth Distance (km) Brightness Sun altitude
Rises 21:58:23 0° 343° (NNW) 2,740 8.4 -19.8°
Reaches altitude 10° 22:00:39 10° 336° (NNW) 1,843 7.2 -20.0°
Maximum altitude 22:04:25 38° 268° (W) 855 4.4 -20.3°
Enters shadow 22:05:51 28° 224° (SW) 1,054 4.5 -20.4°
